Weather History for KCKV - August, 2012

Change the Weather History Date:

Wednesday, August 29, 2012

  Actual Average Record
Temperature  
Mean Temperature 79 °F -  
Max Temperature 92 °F - - ()
Min Temperature 65 °F - - ()
Degree Days  
Heating Degree Days 0    
Month to date heating degree days 0  
Since 1 July heating degree days 0  
Cooling Degree Days 14    
Month to date cooling degree days 343  
Growing Degree Days 28 (Base 50)    
Moisture  
Dew Point 60 °F    
Average Humidity 59    
Maximum Humidity 81    
Minimum Humidity 36    
Precipitation  
Precipitation 0.00 in - - ()
Month to date precipitation 1.33  
Sea Level Pressure  
Sea Level Pressure 29.96 in    
Wind  
Wind Speed 6 mph (ENE)    
Max Wind Speed 14 mph    
Max Gust Speed 21 mph    
Visibility 10 miles    
Events      
T = Trace of Precipitation, MM = Missing Value Source: NWS Daily Summary

Daily Weather History Graph

Daily Weather History Graph

Search for Another Location

Airport or City:

Trip Planner

Search our weather history database for the weather conditions in past years. The results will help you decide how hot, cold, wet, or windy it might be!

Date:

Astronomy

Aug. 29, 2012 Rise Set
Actual Time 6:18 AM CDT 7:21 PM CDT
Civil Twilight 5:52 AM CDT 7:47 PM CDT
Nautical Twilight 5:20 AM CDT 8:19 PM CDT
Astronomical Twilight 4:47 AM CDT 8:51 PM CDT
Moon 6:00 PM CDT (8/29) 4:16 AM CDT (8/29)
Length of Visible Light 13h 55m
Length of Day
13h 02m
Waxing Gibbous, 96% of the Moon is Illuminated
Aug 29
Waxing Gibbous
Aug 31
Full
Sep 8
Last Quarter
Sep 15
New
Sep 22
First Quarter

Hourly Weather History & Observations

Time (CDT) Temp. Heat Index Dew Point Humidity Pressure Visibility Wind Dir Wind Speed Gust Speed Precip Events Conditions
12:52 AM 69.1 °F - 57.0 °F 65% 29.97 in 10.0 mi Calm Calm - N/A   Partly Cloudy
1:52 AM 68.0 °F - 57.9 °F 70% 29.96 in 10.0 mi Calm Calm - N/A   Clear
2:52 AM 68.0 °F - 57.9 °F 70% 29.96 in 10.0 mi Calm Calm - N/A   Clear
3:52 AM 68.0 °F - 59.0 °F 73% 29.96 in 10.0 mi NE 3.5 mph - N/A   Clear
4:52 AM 66.9 °F - 59.0 °F 76% 29.96 in 10.0 mi NNE 3.5 mph - N/A   Clear
5:52 AM 66.9 °F - 59.0 °F 76% 29.97 in 10.0 mi East 3.5 mph - N/A   Clear
6:52 AM 66.9 °F - 60.1 °F 79% 29.99 in 10.0 mi Calm Calm - N/A   Clear
7:52 AM 71.1 °F - 62.1 °F 73% 30.00 in 10.0 mi NE 4.6 mph - N/A   Clear
8:52 AM 75.9 °F - 63.0 °F 64% 30.01 in 10.0 mi East 8.1 mph - N/A   Clear
9:52 AM 81.0 °F 82.5 °F 64.0 °F 56% 30.01 in 10.0 mi ENE 6.9 mph - N/A   Clear
10:52 AM 84.9 °F 85.4 °F 62.1 °F 46% 30.01 in 10.0 mi East 8.1 mph - N/A   Clear
11:52 AM 87.1 °F 87.5 °F 62.1 °F 43% 30.00 in 10.0 mi NE 10.4 mph 17.3 mph N/A   Clear
12:52 PM 89.1 °F 89.3 °F 62.1 °F 40% 29.98 in 10.0 mi East 11.5 mph - N/A   Clear
1:52 PM 90.0 °F 90.0 °F 61.0 °F 38% 29.96 in 10.0 mi ENE 11.5 mph 20.7 mph N/A   Clear
2:52 PM 91.0 °F 90.5 °F 60.1 °F 35% 29.94 in 10.0 mi East 9.2 mph - N/A   Clear
3:52 PM 91.0 °F 90.5 °F 60.1 °F 35% 29.92 in 10.0 mi East 9.2 mph - N/A   Clear
4:52 PM 90.0 °F 90.3 °F 62.1 °F 39% 29.91 in 10.0 mi ENE 6.9 mph - N/A   Clear
5:52 PM 89.1 °F 89.0 °F 61.0 °F 39% 29.90 in 10.0 mi NE 8.1 mph - N/A   Clear
6:52 PM 84.0 °F 84.4 °F 61.0 °F 46% 29.91 in 10.0 mi NE 5.8 mph - N/A   Clear
7:52 PM 80.1 °F 80.9 °F 60.1 °F 50% 29.92 in 10.0 mi ENE 4.6 mph - N/A   Clear
8:52 PM 77.0 °F - 59.0 °F 54% 29.94 in 10.0 mi ENE 6.9 mph - N/A   Clear
9:52 PM 75.9 °F - 59.0 °F 56% 29.94 in 10.0 mi ENE 6.9 mph - N/A   Clear
10:52 PM 75.0 °F - 59.0 °F 57% 29.94 in 10.0 mi NE 6.9 mph - N/A   Clear
11:52 PM 73.0 °F - 60.1 °F 64% 29.94 in 10.0 mi ENE 4.6 mph - N/A   Clear